Temperature
16 14 15 15 15 13 14 16 16 17 17 17 16 15 13 11 10 9 8 8 8 7 7 7 6 6 6 5 5 5 4 4 4 3 3 3 3 3 2 2 2 1 1 1
14 12 13 13 14 14 14 15 15 16 16 16 14 13 12 10 9 8 8 7 7 7 7 6 6 5 5 4 4 4 4 4 3 3 3 3 2 2 2 1 1 0 -0 -1
15 12 12 13 15 14 14 14 15 15 16 14 11 11 10 9 8 7 7 7 7 6 6 5 5 4 4 4 4 4 3 3 3 2 2 2 1 1 1 0 -0 -1 -1 -2
13 12 11 16 13 13 14 14 13 13 12 11 11 9 8 8 8 7 7 6 6 6 5 4 4 4 4 3 3 3 3 3 2 2 1 1 0 0 -0 -1 -1 -2 -2 -3
12 13 14 14 12 12 12 13 12 12 11 9 7 7 7 6 6 6 6 6 5 5 4 4 4 3 3 3 3 2 2 2 1 1 0 -0 -0 -1 -1 -2 -2 -3 -3 -3
11 11 12 15 11 10 12 13 11 10 10 8 8 10 10 6 6 6 6 5 5 4 4 3 3 3 3 2 2 2 1 1 1 0 -0 -1 -1 -2 -2 -3 -3 -3 -4 -4
11 11 13 13 9 10 12 14 10 9 8 8 9 9 8 6 6 5 5 4 4 4 3 3 3 2 2 2 1 1 1 0 0 -0 -1 -1 -2 -2 -3 -3 -4 -4 -5 -5
11 10 11 10 9 11 12 9 8 8 8 7 7 7 6 6 5 5 4 4 3 3 3 3 2 2 1 1 1 0 0 -0 -0 -1 -1 -2 -3 -3 -3 -4 -5 -5 -5 -6
12 12 10 9 10 9 9 8 8 7 7 7 6 6 5 5 4 4 4 3 3 3 3 2 2 1 1 1 0 -0 -0 -1 -1 -2 -2 -3 -3 -4 -4 -5 -5 -6 -6 -6
9 10 8 7 7 8 8 8 8 8 7 7 6 5 5 4 4 4 3 3 2 2 2 2 2 1 1 0 -0 -1 -1 -1 -2 -3 -3 -3 -4 -5 -5 -6 -6 -6 -6 -6
9 9 7 6 7 7 7 7 7 7 6 6 5 5 4 4 3 3 3 2 2 2 1 1 1 1 0 -0 -1 -1 -2 -2 -3 -3 -4 -4 -5 -5 -6 -6 -6 -7 -7 -6
11 9 9 8 7 7 7 7 6 6 5 5 5 4 4 3 3 3 2 2 2 1 1 1 0 0 -0 -1 -1 -2 -2 -3 -3 -4 -4 -5 -5 -6 -6 -6 -6 -7 -7 -7
8 8 7 7 7 7 6 6 5 5 5 4 4 3 3 3 3 2 2 2 1 1 0 0 -0 -0 -1 -1 -2 -2 -3 -3 -4 -4 -5 -6 -6 -7 -7 -6 -7 -6 -6 -6
7 7 6 6 6 6 5 5 4 4 4 3 3 3 3 2 2 2 2 1 1 0 0 -0 -1 -1 -1 -2 -2 -3 -3 -3 -4 -5 -6 -6 -7 -7 -7 -7 -7 -7 -6 -6
5 5 6 6 5 5 4 4 4 3 3 3 3 2 2 2 1 1 1 1 0 -0 -0 -1 -1 -1 -2 -2 -3 -3 -4 -4 -5 -5 -6 -7 -7 -7 -8 -8 -8 -8 -7 -7
4 4 4 4 4 4 3 3 3 3 3 2 2 2 1 1 1 1 1 0 -1 -1 -1 -1 -2 -2 -2 -3 -3 -4 -4 -4 -5 -6 -7 -7 -7 -8 -8 -8 -8 -8 -8 -8
3 2 3 3 3 3 3 3 3 2 2 2 2 1 1 1 0 0 -0 -1 -1 -1 -1 -2 -2 -2 -3 -3 -4 -4 -5 -5 -6 -6 -7 -7 -8 -8 -8 -8 -8 -8 -8 -8
3 4 4 3 3 3 2 2 2 2 1 1 1 1 0 0 -0 -1 -1 -1 -1 -1 -1 -2 -3 -3 -3 -4 -4 -5 -5 -6 -7 -7 -7 -8 -8 -8 -8 -8 -8 -9 -9 -8
2 2 2 2 2 2 2 2 1 1 1 0 0 -0 -0 -1 -1 -1 -2 -2 -2 -2 -2 -3 -3 -4 -4 -4 -5 -6 -6 -7 -7 -7 -8 -8 -8 -8 -8 -9 -9 -9 -9 -9
2 2 2 2 1 1 1 1 1 0 0 -0 -1 -1 -1 -1 -2 -2 -2 -3 -3 -3 -3 -4 -4 -4 -5 -5 -6 -6 -7 -7 -8 -8 -8 -8 -9 -9 -9 -9 -9 -9 -9 -9
1 1 1 1 1 1 0 0 -0 -0 -1 -1 -1 -2 -2 -2 -2 -3 -3 -3 -3 -4 -4 -5 -5 -5 -6 -6 -6 -7 -7 -8 -8 -8 -9 -9 -9 -9 -9 -9 -9 -9 -9 -9
1 0 0 0 0 -0 -0 -1 -1 -1 -1 -1 -2 -2 -2 -3 -3 -3 -4 -4 -4 -4 -5 -5 -5 -6 -6 -7 -7 -7 -8 -8 -8 -9 -9 -9 -9 -10 -10 -10 -10 -10 -10 -10
0 -0 -0 -1 -1 -1 -1 -1 -1 -2 -2 -2 -2 -3 -3 -3 -4 -4 -5 -4 -5 -5 -6 -6 -6 -7 -7 -7 -8 -8 -8 -9 -9 -9 -9 -10 -10 -10 -10 -10 -10 -10 -10 -10
-1 -1 -1 -1 -2 -2 -2 -2 -2 -2 -2 -3 -3 -3 -4 -4 -4 -5 -5 -5 -6 -6 -7 -7 -7 -7 -8 -8 -8 -8 -9 -9 -9 -10 -10 -10 -10 -10 -10 -10 -10 -10 -10 -10
-2 -2 -2 -2 -2 -2 -2 -3 -3 -3 -3 -3 -4 -4 -4 -5 -5 -6 -6 -6 -6 -7 -7 -7 -8 -8 -8 -9 -9 -9 -9 -10 -10 -10 -10 -10 -10 -10 -11 -10 -10 -10 -10 -10
-2 -2 -2 -3 -3 -3 -3 -3 -4 -4 -4 -5 -5 -5 -5 -6 -6 -7 -7 -7 -7 -8 -8 -8 -9 -9 -9 -9 -10 -10 -10 -10 -10 -10 -11 -11 -11 -11 -11 -11 -10 -10 -10 -10
-3 -3 -3 -3 -3 -4 -4 -4 -5 -5 -5 -6 -6 -6 -7 -7 -7 -7 -8 -8 -8 -9 -9 -9 -9 -10 -10 -10 -10 -10 -11 -11 -11 -11 -11 -11 -11 -11 -11 -11 -10 -10 -10 -10
Wind_Speed
5 1 5 8 10 14 16 16 14 15 17 15 11 11 10 9 10 9 8 6 4 2 0 1 2 3 4 5 6 7 9 10 11 11 12 13 14 15 15 16 16 17 17 18
4 3 5 7 12 15 17 18 20 21 20 11 4 7 9 10 10 9 7 5 3 1 1 2 3 5 5 6 7 8 10 11 11 12 13 14 15 16 17 17 17 17 18 18
6 3 3 10 14 18 13 13 14 18 14 6 7 9 10 10 10 8 6 4 3 1 1 3 4 5 7 8 9 9 10 11 12 13 14 15 16 17 17 18 18 18 18 18
3 4 10 7 2 7 13 14 15 12 6 7 7 7 6 8 9 7 6 4 2 2 2 3 4 6 7 8 9 10 11 12 12 13 14 16 17 17 18 17 17 18 18 19
5 8 11 7 5 7 9 9 11 12 10 8 8 7 6 6 6 5 4 3 2 2 3 4 5 7 8 9 10 11 12 13 13 14 15 16 18 18 18 18 18 18 18 19
6 7 9 5 4 5 3 8 7 11 12 12 11 8 7 9 6 5 4 2 2 2 4 5 6 7 9 11 12 12 13 14 14 15 16 17 18 19 18 17 18 18 18 18
12 11 10 2 7 8 7 4 7 11 13 14 10 4 6 9 6 4 3 2 2 4 5 7 7 8 10 12 13 13 14 15 15 15 16 17 17 17 17 17 18 18 18 17
9 10 10 7 10 9 4 4 8 10 11 11 7 6 7 6 5 4 3 3 4 5 7 8 8 9 12 13 14 14 14 15 16 16 15 15 17 17 17 17 17 17 17 17
10 8 0 7 6 2 3 6 7 9 9 9 8 7 6 5 4 3 4 4 5 7 9 10 10 10 13 14 14 14 15 16 17 17 16 15 16 17 16 15 14 14 14 15
7 7 4 5 5 4 5 6 7 8 9 8 7 7 6 4 4 4 4 5 6 8 10 12 12 12 13 14 14 15 16 17 16 16 16 16 14 13 13 14 14 14 15 15
8 5 3 6 8 8 7 7 8 8 7 7 7 6 5 4 4 5 5 6 7 9 11 14 14 14 14 14 14 15 16 16 16 15 16 15 14 13 15 15 15 17 15 15
8 7 7 6 8 11 10 9 10 9 7 6 6 6 5 5 5 6 7 8 9 11 13 14 15 16 15 15 14 15 15 15 13 13 14 14 15 15 16 18 24 25 25 23
2 3 4 3 8 10 9 9 9 8 8 7 5 5 5 5 6 7 8 10 11 13 14 15 16 16 16 15 14 14 15 15 13 13 14 14 14 15 16 17 19 22 23 24
4 5 4 5 7 9 8 9 7 6 5 5 4 4 5 6 8 9 11 12 13 14 15 16 16 17 16 15 14 15 15 15 14 13 13 14 14 15 15 16 17 15 17 21
6 5 5 6 8 8 8 8 7 6 5 4 4 5 6 8 10 11 12 12 13 14 16 16 17 18 16 14 14 15 14 12 12 13 14 14 14 15 15 16 16 16 15 16
6 6 8 9 10 9 8 7 7 6 5 4 5 6 7 9 11 12 13 13 13 15 16 16 17 17 15 14 14 13 13 16 16 14 14 14 14 14 15 15 15 15 15 15
9 8 8 9 9 8 7 6 5 5 5 6 7 8 9 10 12 13 14 13 14 15 16 16 17 16 14 14 14 12 13 14 17 15 13 14 14 14 15 15 14 15 15 16
6 7 8 9 8 7 5 4 4 5 5 6 7 8 10 11 13 14 15 15 15 16 16 15 15 14 14 14 13 12 13 13 13 13 14 14 15 15 14 15 15 16 15 15
6 6 6 6 5 4 3 3 4 5 6 7 8 10 11 12 13 14 14 14 16 17 15 13 16 16 15 15 15 13 13 14 14 14 14 17 17 14 14 14 15 15 15 14
6 6 5 4 2 2 2 3 5 6 7 8 9 11 12 13 13 14 14 14 13 13 14 16 16 14 14 14 16 12 14 14 15 15 14 14 15 15 15 15 15 15 14 14
5 4 3 1 1 2 4 5 6 8 9 9 10 12 13 14 14 13 13 15 15 13 14 17 14 12 12 14 17 13 13 14 14 14 14 14 14 15 15 15 14 14 14 13
2 1 0 2 3 5 6 6 7 9 10 10 11 11 13 14 14 14 14 13 14 15 13 12 12 14 16 19 14 14 14 14 14 13 14 14 14 14 15 15 14 14 13 13
1 1 3 4 5 7 8 8 8 9 10 11 12 13 14 14 12 12 14 12 11 16 14 13 16 21 24 17 13 13 14 14 14 14 14 14 14 14 14 15 14 14 13 13
2 3 4 5 5 7 9 10 9 9 10 12 12 12 13 12 12 11 12 16 18 19 15 17 22 23 22 13 12 13 13 13 13 13 14 14 14 14 14 14 14 13 13 15
4 5 5 6 7 7 9 10 10 10 11 10 12 12 11 10 12 13 13 15 18 19 15 17 21 21 16 12 12 13 13 13 14 14 14 14 14 14 14 14 13 13 13 13
5 6 6 7 7 8 8 8 9 10 10 12 12 11 11 11 13 13 12 14 17 18 15 13 14 15 12 12 13 14 13 14 15 14 14 14 15 15 14 14 16 14 13 13
6 6 6 7 7 7 7 8 10 11 11 12 14 13 13 12 12 13 14 14 13 13 13 13 12 12 12 13 13 14 13 13 13 13 13 13 13 13 14 15 14 13 12 12
Wind_Direction
250 175 183 210 207 200 213 232 247 258 259 258 234 215 201 183 168 163 159 156 153 153 143 340 335 328 325 320 318 315 310 309 308 308 306 304 302 301 301 299 296 294 293 291
225 205 221 243 237 224 229 240 248 259 265 268 230 200 192 181 172 170 167 167 167 175 263 317 323 320 314 312 312 308 304 303 305 305 304 303 302 302 301 299 297 295 293 293
239 179 234 253 241 229 225 226 235 249 258 203 185 188 185 177 173 172 172 173 182 212 286 306 310 308 306 308 307 303 299 300 303 303 302 303 303 302 301 300 299 297 295 294
209 185 238 255 147 224 229 239 232 240 228 182 178 162 165 170 171 170 170 179 197 244 280 295 302 302 302 302 300 298 297 299 302 303 302 303 304 303 302 302 300 298 296 296
195 239 261 261 212 191 208 247 224 220 204 166 141 143 163 165 167 168 170 181 213 257 277 289 297 301 301 298 298 296 296 300 304 305 304 304 304 304 304 303 300 299 298 297
198 226 247 249 143 157 181 257 205 193 179 163 163 191 188 168 164 162 166 183 227 263 280 287 298 303 298 298 300 300 303 304 304 303 302 301 302 303 302 301 299 299 296 296
223 237 258 220 141 157 211 272 156 175 172 171 184 183 133 149 161 169 183 210 252 277 285 292 300 300 295 297 300 303 303 302 301 300 300 301 301 300 301 301 299 298 297 296
210 226 245 157 158 197 233 116 159 168 170 172 162 133 140 155 166 181 208 243 271 284 291 297 299 295 294 298 303 305 303 301 300 301 302 300 300 301 301 302 301 301 300 301
202 220 13 167 195 201 147 162 168 167 166 162 159 166 167 176 189 211 239 262 275 284 292 297 299 297 295 300 305 304 302 300 301 302 301 300 299 301 302 301 299 300 300 300
226 239 218 205 207 193 181 173 160 158 158 163 168 171 180 192 214 238 257 270 280 286 291 297 303 301 296 299 302 301 300 301 301 301 301 300 298 297 296 298 298 298 299 299
234 237 213 218 208 188 165 151 145 145 155 164 164 175 191 212 234 253 269 278 282 284 289 293 299 300 301 302 303 301 300 300 300 300 299 300 298 294 294 290 289 293 295 297
229 205 199 203 187 176 167 166 162 154 154 162 175 185 204 231 251 264 275 281 284 286 289 294 299 300 302 303 302 299 298 299 300 300 299 299 300 298 289 286 291 291 290 291
228 155 173 147 162 170 172 167 163 165 165 171 183 199 221 248 263 272 277 281 285 290 295 297 298 297 300 302 299 295 293 295 297 296 297 298 299 300 302 300 295 294 293 295
164 144 153 165 167 165 159 154 153 156 168 179 195 219 241 261 273 277 281 286 290 293 294 295 295 295 300 302 297 293 292 292 291 292 294 295 296 297 298 301 304 303 300 298
185 189 166 147 145 146 145 148 156 169 182 203 222 240 256 269 277 282 287 291 293 293 293 295 295 297 302 302 296 292 292 291 292 293 293 293 295 295 295 296 297 299 301 302
151 141 142 147 153 154 157 166 180 195 210 233 251 263 272 277 282 286 289 292 293 294 297 298 296 298 302 300 295 292 290 288 291 293 293 293 294 295 295 296 296 297 299 301
152 157 161 166 167 170 176 185 197 213 236 253 267 280 285 287 288 289 292 294 292 290 292 293 293 296 297 294 292 292 293 293 293 292 290 291 293 294 294 294 295 296 296 297
181 171 171 170 171 175 185 199 218 239 255 269 281 285 285 286 289 293 297 300 297 294 292 293 294 296 295 293 293 292 291 291 292 292 292 292 293 293 293 293 294 295 296 298
142 143 146 151 160 174 196 226 249 263 273 279 281 283 285 285 287 291 295 296 295 295 296 299 300 298 296 295 296 293 291 290 291 292 293 294 295 293 293 293 294 294 295 296
121 124 126 128 136 178 238 268 278 280 281 281 282 284 286 288 291 292 293 289 284 285 292 296 298 295 295 296 297 293 290 291 293 295 295 294 294 294 294 294 294 294 294 294
117 118 119 129 262 275 275 280 281 282 285 283 280 282 286 290 292 291 289 290 291 293 296 296 295 293 297 298 297 292 291 292 293 294 294 294 294 294 294 294 294 294 293 293
118 130 218 281 286 289 289 286 281 282 284 284 283 283 285 289 290 288 279 279 288 294 297 295 293 294 300 301 297 294 293 293 293 293 292 292 293 293 294 294 294 294 293 292
248 272 282 285 287 290 291 287 281 280 281 283 285 286 286 287 289 289 290 290 293 296 298 292 293 297 301 302 296 294 294 293 293 293 292 292 292 292 292 293 293 293 292 292
286 286 285 288 288 284 286 288 286 283 280 281 278 277 280 286 286 281 281 290 295 295 294 293 296 299 302 299 295 293 293 293 293 293 292 291 291 292 292 292 292 292 291 292
280 279 277 279 281 282 284 290 291 288 286 284 285 284 281 277 282 289 291 293 295 297 296 296 297 299 300 294 293 292 292 291 292 293 293 294 294 293 292 291 291 292 292 291
277 278 277 274 274 279 284 287 288 290 293 293 293 293 292 289 287 288 290 292 293 294 295 295 297 298 295 293 293 293 293 294 294 294 292 292 292 292 291 291 291 291 290 289
280 279 279 281 280 277 280 282 284 287 289 290 293 295 295 294 292 292 293 294 295 294 295 295 296 295 294 294 294 293 293 293 293 293 293 293 292 291 291 291 291 290 289 288
Height
1495 1499 1499 1499 1501 1507 1505 1497 1497 1489 1488 1487 1492 1497 1500 1503 1506 1508 1510 1511 1513 1513 1514 1513 1512 1511 1509 1507 1504 1502 1499 1495 1492 1488 1484 1479 1474 1469 1464 1459 1453 1448 1442 1437
1498 1502 1502 1501 1497 1498 1499 1495 1491 1488 1486 1485 1491 1495 1497 1500 1503 1505 1507 1509 1510 1510 1510 1510 1508 1507 1505 1502 1500 1497 1493 1490 1486 1481 1477 1472 1467 1461 1456 1450 1444 1439 1433 1427
1493 1502 1502 1495 1486 1487 1489 1486 1486 1484 1481 1485 1490 1492 1495 1497 1500 1502 1504 1506 1507 1507 1507 1506 1504 1503 1500 1498 1495 1492 1488 1484 1479 1474 1469 1464 1459 1453 1447 1441 1436 1430 1424 1418
1495 1501 1503 1476 1481 1480 1481 1480 1481 1481 1482 1485 1488 1491 1494 1496 1498 1500 1502 1503 1503 1503 1503 1502 1500 1498 1496 1493 1490 1486 1482 1477 1473 1467 1462 1457 1451 1445 1439 1433 1427 1421 1415 1409
1495 1489 1480 1476 1478 1480 1480 1476 1476 1478 1481 1485 1488 1491 1493 1494 1496 1498 1499 1500 1500 1500 1499 1498 1496 1494 1491 1488 1484 1480 1475 1471 1466 1461 1455 1449 1443 1438 1431 1425 1418 1412 1406 1400
1493 1492 1485 1469 1475 1476 1479 1474 1472 1475 1478 1483 1487 1488 1489 1492 1493 1495 1496 1497 1497 1496 1495 1494 1492 1489 1485 1482 1478 1474 1469 1464 1459 1454 1448 1442 1436 1429 1423 1417 1410 1403 1397 1391
1484 1483 1470 1468 1474 1477 1478 1467 1471 1473 1476 1480 1482 1484 1487 1488 1490 1492 1493 1493 1493 1492 1491 1489 1487 1483 1480 1476 1472 1467 1462 1457 1452 1446 1441 1434 1428 1421 1415 1408 1401 1395 1388 1383
1478 1480 1474 1470 1473 1471 1466 1468 1469 1472 1475 1478 1481 1482 1484 1486 1488 1489 1490 1490 1489 1488 1487 1484 1481 1477 1473 1470 1465 1460 1455 1449 1444 1439 1433 1426 1420 1413 1407 1401 1393 1387 1380 1375
1465 1463 1464 1465 1465 1466 1467 1468 1469 1471 1474 1476 1479 1480 1482 1484 1485 1486 1486 1486 1485 1483 1481 1479 1476 1472 1467 1463 1458 1453 1447 1442 1436 1431 1425 1419 1412 1406 1399 1393 1387 1380 1374 1368
1463 1460 1462 1463 1463 1464 1465 1466 1468 1470 1472 1475 1476 1478 1480 1481 1482 1483 1483 1482 1480 1478 1475 1472 1469 1465 1461 1456 1451 1445 1439 1434 1428 1422 1416 1411 1405 1399 1392 1386 1380 1374 1368 1362
1458 1458 1460 1460 1460 1461 1463 1465 1467 1469 1471 1473 1474 1476 1477 1478 1479 1479 1478 1477 1475 1472 1469 1466 1462 1458 1454 1449 1443 1437 1432 1426 1421 1415 1409 1402 1397 1392 1385 1379 1375 1368 1362 1356
1450 1451 1454 1454 1456 1458 1461 1462 1465 1467 1469 1471 1472 1473 1475 1475 1475 1475 1474 1472 1469 1466 1463 1459 1455 1451 1447 1442 1436 1430 1424 1419 1413 1407 1401 1395 1388 1382 1376 1372 1366 1361 1355 1350
1448 1448 1450 1451 1453 1456 1458 1460 1463 1465 1467 1468 1470 1471 1471 1472 1471 1470 1468 1466 1463 1460 1456 1452 1448 1443 1439 1434 1429 1423 1417 1411 1406 1400 1394 1388 1381 1374 1367 1361 1357 1352 1347 1341
1445 1447 1448 1450 1451 1454 1456 1459 1461 1463 1465 1466 1467 1468 1468 1467 1466 1465 1462 1460 1457 1453 1449 1445 1440 1435 1431 1426 1421 1415 1410 1404 1398 1392 1387 1381 1374 1368 1362 1354 1347 1342 1338 1333
1442 1444 1446 1447 1450 1452 1454 1457 1459 1461 1462 1463 1464 1464 1464 1462 1461 1459 1456 1453 1450 1445 1441 1437 1432 1427 1423 1418 1412 1407 1402 1396 1391 1385 1379 1373 1367 1361 1355 1349 1342 1335 1329 1325
1440 1442 1444 1446 1448 1450 1453 1455 1457 1458 1459 1460 1460 1460 1459 1457 1455 1452 1450 1446 1442 1437 1433 1428 1424 1419 1414 1409 1404 1398 1393 1388 1383 1377 1371 1366 1360 1354 1348 1342 1336 1330 1324 1318
1438 1440 1443 1445 1447 1449 1451 1453 1454 1456 1456 1456 1456 1455 1453 1451 1448 1445 1442 1439 1434 1429 1425 1420 1415 1410 1406 1401 1396 1390 1385 1380 1375 1369 1364 1359 1353 1347 1341 1335 1329 1323 1317 1312
1437 1439 1441 1443 1445 1447 1449 1451 1452 1453 1453 1452 1451 1449 1447 1444 1441 1438 1434 1430 1425 1421 1417 1413 1407 1402 1398 1393 1388 1383 1377 1372 1366 1361 1356 1351 1345 1340 1334 1328 1322 1316 1310 1305
1436 1439 1441 1443 1445 1446 1447 1448 1449 1449 1448 1447 1445 1443 1440 1437 1434 1430 1426 1421 1416 1411 1407 1404 1399 1394 1389 1385 1380 1374 1369 1364 1358 1353 1348 1343 1337 1332 1326 1321 1315 1309 1304 1298
1436 1438 1440 1442 1443 1445 1445 1445 1445 1444 1443 1441 1439 1436 1433 1430 1426 1422 1417 1413 1409 1404 1399 1394 1390 1385 1381 1376 1372 1366 1361 1356 1351 1345 1340 1335 1329 1324 1318 1313 1308 1302 1297 1292
1437 1438 1440 1441 1442 1442 1442 1441 1440 1439 1437 1435 1432 1429 1425 1421 1418 1413 1408 1403 1399 1396 1391 1386 1382 1377 1373 1368 1363 1358 1353 1348 1343 1337 1332 1327 1321 1316 1310 1305 1300 1295 1290 1285
1436 1437 1438 1439 1439 1438 1438 1436 1435 1432 1430 1428 1425 1421 1417 1413 1409 1404 1400 1396 1391 1387 1382 1377 1373 1369 1364 1360 1355 1350 1345 1340 1334 1329 1324 1318 1313 1308 1302 1298 1293 1288 1283 1278
1435 1435 1435 1435 1434 1433 1432 1431 1428 1426 1423 1420 1417 1413 1409 1405 1400 1396 1390 1387 1383 1378 1374 1369 1365 1360 1356 1351 1346 1341 1336 1331 1326 1321 1315 1310 1305 1300 1295 1290 1285 1280 1276 1271
1433 1432 1432 1431 1429 1428 1426 1424 1421 1418 1415 1412 1409 1405 1401 1396 1391 1387 1383 1378 1373 1369 1364 1360 1356 1351 1347 1342 1337 1332 1327 1322 1317 1312 1307 1302 1297 1292 1287 1282 1277 1273 1268 1264
1429 1428 1427 1426 1424 1421 1419 1416 1413 1410 1407 1403 1400 1396 1393 1388 1383 1378 1373 1369 1364 1360 1355 1350 1346 1342 1337 1333 1328 1323 1318 1314 1309 1304 1299 1294 1289 1284 1279 1275 1270 1265 1261 1257
1424 1423 1422 1420 1418 1415 1412 1409 1405 1402 1398 1394 1390 1387 1383 1379 1374 1369 1364 1360 1355 1351 1346 1341 1337 1333 1328 1324 1319 1315 1310 1305 1300 1295 1291 1286 1281 1276 1272 1267 1262 1258 1254 1250
1419 1417 1415 1413 1411 1409 1405 1402 1398 1394 1390 1386 1381 1377 1374 1369 1365 1360 1356 1351 1347 1342 1338 1333 1329 1325 1320 1316 1311 1306 1302 1297 1292 1287 1283 1278 1273 1268 1264 1260 1255 1251 1247 1243